Stations météo

réclame
Mon MeteoGroup
Solenzara, France (7765): Température de l'air & dewpoint: 20.08.2019 03:00:00 - 26.08.2019 03:00:00 (CEST)Solenzara, France (7765): Température de l'air 5cm: 20.08.2019 03:00:00 - 26.08.2019 03:00:00 (CEST)Solenzara, France (7765): Température de l'air -20cm: 20.08.2019 03:00:00 - 26.08.2019 03:00:00 (CEST)Solenzara, France (7765): Vitesse du vent & gusts: 20.08.2019 03:00:00 - 26.08.2019 03:00:00 (CEST)Solenzara, France (7765): Direction du vent: 20.08.2019 03:00:00 - 26.08.2019 03:00:00 (CEST)Solenzara, France (7765): reduced air pressure: 20.08.2019 03:00:00 - 26.08.2019 03:00:00 (CEST)Solenzara, France (7765): visibility: 20.08.2019 03:00:00 - 26.08.2019 03:00:00 (CEST)Solenzara, France (7765): Ensoleillement: 20.08.2019 03:00:00 - 26.08.2019 03:00:00 (CEST)Solenzara, France (7765): Quantités de précipitations: 20.08.2019 03:00:00 - 26.08.2019 03:00:00 (CEST)
Date & Time tt [°C] td [°C] tt 5cm [°C] tt -20cm [°C] ff [km/h] ff [knt] fx [km/h] fx [knt] dd ppp [hPa] vv [km] sd [min] rr [mm]
26.08.2019 03:00:00 22,5 17,2 21,3 28,1 5 3 16 8 NW 1016,4 25 0 0,0
26.08.2019 02:00:00 22,7 17,8 21,8 28,2 10 5 14 8 W 1016,7 26 0 0,0
26.08.2019 01:00:00 23,1 17,8 22,2 28,3 9 5 18 10 W 1017,0 27 0 0,0
26.08.2019 00:00:00 23,5 18,6 22,7 28,3 10 5 16 9 W 1017,4 25 0 0,0
25.08.2019 23:00:00 23,9 19,4 23,0 28,3 8 5 12 6 W 1017,3 25 0 0,0
25.08.2019 22:00:00 24,4 20,3 23,5 28,3 7 4 10 5 W 1017,1 26 0 0,0
25.08.2019 21:00:00 25,4 20,4 23,8 28,3 5 3 6 4 W 1016,8 29 0 0,0
25.08.2019 20:00:00 26,4 21,4 24,7 28,3 0 0 5 3 N 1016,2 31 0 0,0
25.08.2019 19:00:00 26,9 21,6 26,8 28,1 5 3 10 5 E 1015,9 31 2 0,0
25.08.2019 18:00:00 27,7 21,3 29,0 28,0 5 3 13 7 E 1015,9 32 45 0,0
25.08.2019 17:00:00 27,9 21,0 28,5 27,7 3 1 9 5 SE 1015,7 35 14 0,0
25.08.2019 16:00:00 27,4 21,4 28,6 27,5 5 3 15 8 SE 1015,7 31 1 0,0
25.08.2019 15:00:00 28,8 22,3 32,1 27,2 10 5 19 11 E 1016,1 19 60 0,0
25.08.2019 14:00:00 29,2 21,7 34,0 27,0 11 6 18 10 ESE 1016,4 41 60 0,0
25.08.2019 13:00:00 28,9 22,2 34,7 26,8 11 6 19 10 E 1016,6 20 60 0,0
25.08.2019 12:00:00 28,7 21,7 35,2 26,7 13 7 19 10 E 1016,9 19 60 0,0
25.08.2019 11:00:00 29,1 20,5 33,8 26,7 13 7 19 11 E 1017,2 20 60 0,0
25.08.2019 10:00:00 28,8 16,0 32,2 26,8 11 6 16 8 NE 1017,2 50 60 0,0
25.08.2019 09:00:00 26,7 16,3 25,0 26,9 2 1 17 9 WNW 1017,0 40 60 0,0
25.08.2019 08:00:00 23,0 16,5 20,9 26,9 9 5 16 9 W 1016,6 27 46 0,0
25.08.2019 07:00:00 21,6 16,8 20,5 27,1 11 6 19 10 W 1016,2 27 0 0,0
25.08.2019 06:00:00 21,6 17,0 20,6 27,2 11 6 17 9 W 1016,0 25 0 0,0
25.08.2019 05:00:00 21,3 17,3 20,5 27,3 11 6 18 10 W 1016,1 22 0 0,0
25.08.2019 04:00:00 21,6 18,0 20,7 27,4 10 5 16 9 W 1016,3 20 0 0,0
25.08.2019 03:00:00 21,7 18,1 20,9 27,5 9 5 14 8 W 1016,6 19 0 0,0
25.08.2019 02:00:00 22,0 18,8 21,2 27,5 10 5 16 9 W 1016,7 19 0 0,0
25.08.2019 01:00:00 22,5 20,0 20,9 27,6 4 2 13 7 NW 1017,1 15 0 0,0
25.08.2019 00:00:00 23,2 19,6 22,3 27,6 8 4 15 8 WNW 1016,9 20 0 0,0
24.08.2019 23:00:00 23,7 20,4 22,6 27,7 7 4 16 8 WNW 1017,0 19 0 0,0
24.08.2019 22:00:00 24,2 20,9 23,1 27,6 7 4 11 6 W 1017,0 20 0 0,0
24.08.2019 21:00:00 25,0 20,9 23,9 27,6 5 3 9 5 W 1016,8 23 0 0,0
24.08.2019 20:00:00 25,7 20,7 25,1 27,5 6 4 10 6 N 1016,5 26 0 0,0
24.08.2019 19:00:00 26,4 21,2 26,8 27,4 5 3 12 6 NE 1016,3 28 7 0,0
24.08.2019 18:00:00 26,6 21,1 27,8 27,3 6 3 12 7 E 1016,3 20 7 0,0
24.08.2019 17:00:00 26,8 21,1 28,2 27,1 6 3 17 9 ESE 1016,7 26 5 0,0
24.08.2019 16:00:00 28,3 21,8 32,5 27,0 14 7 21 11 ESE 1016,8 20 60 0,0
24.08.2019 15:00:00 27,7 21,0 29,4 26,8 8 4 17 9 E 1017,2 27 15 0,0
24.08.2019 14:00:00 27,6 21,4 29,4 26,7 12 6 25 13 E 1017,7 40 10 0,0
24.08.2019 13:00:00 28,5 20,2 31,2 26,6 19 10 29 16 ENE 1017,8 33 29 0,0
24.08.2019 12:00:00 27,9 20,7 30,3 26,6 21 11 29 16 NE 1018,1 34 7 0,0
24.08.2019 11:00:00 28,0 20,6 30,0 26,6 13 7 24 13 NE 1018,0 34 6 0,0
24.08.2019 10:00:00 27,4 17,8 28,0 26,7 6 3 11 6 NNE 1017,7 19 1 0,0
24.08.2019 09:00:00 26,1 16,9 24,3 26,8 3 2 15 8 WSW 1017,5 20 53 0,0
24.08.2019 08:00:00 22,2 16,7 20,0 26,9 10 5 19 10 W 1017,4 41 40 0,0
24.08.2019 07:00:00 20,7 16,7 19,9 27,1 13 7 23 13 W 1017,5 34 0 0,0
24.08.2019 06:00:00 20,7 16,7 19,8 27,2 12 7 22 12 W 1017,4 33 0 0,0
24.08.2019 05:00:00 20,8 16,8 19,9 27,4 11 6 24 13 WNW 1017,5 34 0 0,0
24.08.2019 04:00:00 20,9 16,7 19,7 27,5 11 6 21 12 W 1017,4 35 0 0,0
24.08.2019 03:00:00 20,5 16,9 19,7 27,7 12 6 20 11 W 1017,6 30 0 0,0
24.08.2019 02:00:00 20,9 16,7 19,6 27,8 10 5 20 11 W 1017,8 34 0 0,0
24.08.2019 01:00:00 20,5 17,1 19,6 27,9 10 6 21 11 W 1018,1 30 0 0,0
24.08.2019 00:00:00 20,6 17,4 19,7 28,1 9 5 17 9 W 1018,1 30 0 0,0
23.08.2019 23:00:00 20,8 17,6 19,9 28,2 11 6 21 11 W 1018,1 30 0 0,0
23.08.2019 22:00:00 21,4 18,0 20,3 28,3 11 6 18 10 W 1018,4 33 0 0,0
23.08.2019 21:00:00 22,0 18,0 21,0 28,4 11 6 21 11 W 1018,3 40 0 0,2
23.08.2019 20:00:00 22,5 19,7 21,7 28,5 8 5 15 8 W 1018,3 33 26 0,2
23.08.2019 19:00:00 24,0 19,9 21,9 28,6 7 4 12 6 NW 1018,1 43 44 0,4
23.08.2019 18:00:00 22,7 19,5 21,2 28,7 3 2 10 6 W 1018,2 36 0 0,4
23.08.2019 17:00:00 23,0 20,0 21,5 28,8 7 4 17 9 NW 1018,5 16 0 0,5
23.08.2019 16:00:00 23,4 20,5 21,3 28,9 13 7 18 10 N 1018,3 39 0 0,6
23.08.2019 15:00:00 22,0 19,4 20,2 29,0 3 1 25 13 S 1018,6 16 0 1,0
23.08.2019 14:00:00 21,9 18,5 20,1 29,1 8 5 31 17 W 1019,2 35 0 1,4
23.08.2019 13:00:00 23,9 21,2 22,2 29,1 4 2 29 16 NW 1019,6 8 0 2,4
23.08.2019 12:00:00 24,1 21,4 22,1 29,1 25 13 35 19 NNE 1019,7 4,5 15 0,2
23.08.2019 11:00:00 28,0 20,6 29,6 29,2 11 6 16 9 ENE 1019,0 42 29 0,0
23.08.2019 10:00:00 27,9 20,7 27,7 29,3 7 4 11 6 SE 1018,5 46 32 0,0
23.08.2019 09:00:00 26,3 18,2 24,3 29,4 5 3 12 7 WSW 1018,0 36 20 0,0
23.08.2019 08:00:00 23,7 18,1 23,1 29,5 8 4 15 8 W 1018,3 41 0 0,0
23.08.2019 07:00:00 23,9 19,4 21,8 29,6 9 5 23 13 NNW 1017,8 32 0 0,0
23.08.2019 06:00:00 23,8 18,9 21,0 29,7 8 5 24 13 W 1016,9 40 0 0,2
23.08.2019 05:00:00 23,5 18,6 21,0 29,8 13 7 26 14 SW 1016,7 37 0 0,2
23.08.2019 04:00:00 24,3 21,4 22,1 29,9 3 2 10 5 WNW 1017,7 26 0 0,0
23.08.2019 03:00:00 24,7 20,8 22,7 30,0 5 3 13 7 NW 1017,5 28 0 0,0
23.08.2019 02:00:00 25,0 20,5 23,0 30,0 5 3 15 8 SW 1017,8 34 0 0,0
23.08.2019 01:00:00 25,5 20,1 24,2 30,1 8 5 15 8 W 1018,1 27 0 0,0
23.08.2019 00:00:00 25,7 21,4 24,8 30,1 6 4 10 5 W 1018,5 32 0 0,0
22.08.2019 23:00:00 26,3 21,3 25,2 30,2 0 0 13 7 N 1018,7 35 0 0,0
22.08.2019 22:00:00 26,5 20,6 26,1 30,2 7 4 13 7 NNW 1018,5 41 0 0,0
22.08.2019 21:00:00 26,9 21,4 26,1 30,1 4 2 7 4 NE 1018,3 42 0 0,0
22.08.2019 20:00:00 27,1 21,2 26,7 30,2 3 1 15 8 E 1017,1 44 8 0,0
22.08.2019 19:00:00 27,6 22,5 28,4 30,1 11 6 17 9 SSE 1016,6 34 29 0,0
22.08.2019 18:00:00 28,1 22,6 29,9 30,0 7 4 14 8 ENE 1017,4 40 1 0,0
22.08.2019 17:00:00 27,7 22,6 28,8 29,9 4 2 9 5 SE 1018,1 35 0 0,0
22.08.2019 16:00:00 27,5 22,7 28,7 29,8 5 3 16 9 ESE 1018,0 34 1 0,0
22.08.2019 15:00:00 28,2 22,7 31,6 29,6 9 5 16 9 ESE 1018,0 30 16 0,0
22.08.2019 14:00:00 28,5 22,5 32,7 29,5 10 6 16 9 ESE 1018,1 43 32 0,0
22.08.2019 13:00:00 28,9 22,2 33,1 29,4 10 6 19 10 E 1018,5 44 43 0,0
22.08.2019 12:00:00 28,7 21,5 34,2 29,4 11 6 18 10 E 1018,4 18 60 0,0
22.08.2019 11:00:00 28,2 21,5 30,6 29,4 10 5 17 9 E 1018,4 20 42 0,0
22.08.2019 10:00:00 27,5 21,5 30,0 29,5 8 4 14 7 ESE 1017,9 36 40 0,0
22.08.2019 09:00:00 27,7 18,7 27,0 29,6 2 1 6 4 SW 1017,6 20 38 0,0
22.08.2019 08:00:00 24,8 18,0 23,4 29,7 5 3 10 5 W 1017,6 48 31 0,0
22.08.2019 07:00:00 23,3 18,0 21,7 29,8 7 4 10 5 W 1017,4 40 0 0,0
22.08.2019 06:00:00 23,3 17,3 22,2 29,9 7 4 14 8 W 1017,0 46 0 0,0
22.08.2019 05:00:00 22,9 17,8 21,8 30,1 8 5 14 8 W 1017,0 40 0 0,0
22.08.2019 04:00:00 22,9 18,7 21,8 30,2 8 4 12 6 W 1017,3 34 0 0,0
22.08.2019 03:00:00 23,6 18,5 22,7 30,3 8 5 14 8 W 1017,3 37 0 0,0
22.08.2019 02:00:00 23,8 19,3 23,0 30,3 8 4 12 7 W 1017,5 34 0 0,0
22.08.2019 01:00:00 24,4 20,3 23,5 30,4 7 4 13 7 W 1017,8 31 0 0,0
22.08.2019 00:00:00 24,5 20,8 23,7 30,5 7 4 11 6 W 1017,9 28 0 0,0
21.08.2019 23:00:00 25,1 21,4 24,1 30,5 6 3 10 5 W 1017,8 30 0 0,0
21.08.2019 22:00:00 25,6 21,5 24,5 30,5 6 3 9 5 W 1017,6 32 0 0,0
21.08.2019 21:00:00 26,5 22,3 24,6 30,4 3 1 6 4 SSE 1016,9 36 0 0,0
21.08.2019 20:00:00 27,2 22,4 26,6 30,3 3 2 9 5 SE 1016,7 36 0 0,0
21.08.2019 19:00:00 27,8 22,5 28,9 30,2 6 3 11 6 ESE 1016,5 39 21 0,0
21.08.2019 18:00:00 28,5 22,3 30,0 30,0 7 4 17 9 ESE 1016,6 37 53 0,0
21.08.2019 17:00:00 29,0 23,0 32,1 29,8 9 5 17 9 ESE 1016,7 51 60 0,0
21.08.2019 16:00:00 28,5 23,2 30,1 29,6 11 6 21 11 E 1016,8 55 53 0,0
21.08.2019 15:00:00 29,3 23,0 34,0 29,3 14 7 23 12 E 1016,9 39 60 0,0
21.08.2019 14:00:00 29,2 22,9 34,4 29,1 12 6 22 12 E 1017,3 43 60 0,0
21.08.2019 13:00:00 28,9 22,6 35,4 29,1 14 8 22 12 E 1017,5 20 60 0,0
21.08.2019 12:00:00 28,9 22,9 35,7 29,0 13 7 21 11 E 1017,7 45 60 0,0
21.08.2019 11:00:00 28,5 22,5 34,9 29,0 12 6 19 11 E 1017,8 45 60 0,0
21.08.2019 10:00:00 27,9 21,0 30,4 29,1 9 5 17 9 ENE 1017,6 20 60 0,0
21.08.2019 09:00:00 26,5 19,4 28,0 29,2 10 6 16 8 NNE 1017,6 33 60 0,0
21.08.2019 08:00:00 24,6 17,6 21,9 29,3 4 2 12 7 NW 1017,5 51 58 0,0
21.08.2019 07:00:00 22,3 16,3 21,2 29,5 8 4 13 7 W 1017,2 60 0 0,0
21.08.2019 06:00:00 22,1 16,1 21,3 29,6 11 6 19 11 W 1016,7 60 0 0,0
21.08.2019 05:00:00 22,2 16,5 21,5 29,7 10 5 18 10 W 1016,7 59 0 0,0
21.08.2019 04:00:00 22,6 17,3 21,8 29,8 9 5 18 10 W 1016,7 59 0 0,0
21.08.2019 03:00:00 22,8 17,5 22,1 29,9 9 5 17 9 W 1016,7 56 0 0,0
21.08.2019 02:00:00 23,4 18,5 22,4 29,9 8 5 13 7 W 1016,9 51 0 0,0
21.08.2019 01:00:00 23,5 18,6 22,6 30,0 8 4 13 7 W 1017,0 50 0 0,0
21.08.2019 00:00:00 24,0 19,3 23,1 30,1 8 4 12 6 W 1017,1 45 0 0,0
20.08.2019 23:00:00 25,1 20,8 24,1 30,1 7 4 21 11 NW 1016,9 35 0 0,0
20.08.2019 22:00:00 25,6 21,7 24,9 30,1 12 7 19 10 NNW 1017,0 32 0 0,0
20.08.2019 21:00:00 25,9 21,6 24,6 30,1 13 7 26 14 N 1016,9 37 0 0,0
20.08.2019 20:00:00 26,7 21,9 26,2 30,0 20 11 32 18 S 1016,4 39 32 0,0
20.08.2019 19:00:00 27,6 21,9 28,7 29,9 22 12 31 17 S 1016,0 40 60 0,0
20.08.2019 18:00:00 28,2 21,7 29,8 29,7 20 11 32 17 SSE 1016,2 39 60 0,0
20.08.2019 17:00:00 28,5 22,5 31,1 29,6 20 11 30 16 SSE 1016,5 35 60 0,0
20.08.2019 16:00:00 28,7 22,2 34,5 29,4 19 11 29 16 SSE 1016,7 30 60 0,0
20.08.2019 15:00:00 29,1 21,8 34,4 29,2 16 9 28 15 SSE 1016,8 32 60 0,0
20.08.2019 14:00:00 29,0 21,2 34,0 29,1 19 11 31 17 SSE 1017,1 35 60 0,0
20.08.2019 13:00:00 29,2 21,7 35,6 29,0 19 11 30 16 SSE 1017,3 38 60 0,0
20.08.2019 12:00:00 28,8 21,1 35,7 29,0 19 10 30 16 SSE 1017,5 43 60 0,0
20.08.2019 11:00:00 28,5 21,5 34,5 29,1 20 11 30 16 SSE 1017,3 48 60 0,0
20.08.2019 10:00:00 27,4 21,7 32,9 29,1 19 10 24 13 SSE 1017,0 52 60 0,0
20.08.2019 09:00:00 26,6 21,1 29,3 29,3 10 6 16 9 S 1016,8 45 60 0,0
20.08.2019 08:00:00 24,5 18,0 21,7 29,4 0 0 10 5 N 1016,7 52 60 0,0
20.08.2019 07:00:00 22,0 18,0 20,8 29,5 8 4 12 7 W 1016,7 52 7 0,0
20.08.2019 06:00:00 22,0 18,6 20,3 29,6 8 4 12 7 W 1016,6 47 0 0,0
20.08.2019 05:00:00 22,7 18,7 21,4 29,7 7 4 11 6 WNW 1016,6 56 0 0,0
20.08.2019 04:00:00 22,9 19,1 21,8 29,8 6 4 13 7 W 1016,9 53 0 0,0
20.08.2019 03:00:00 23,1 19,5 22,0 29,9 7 4 10 5 W 1017,2 54 0 0,0

tt = Température de l'air
td = dewpoint
tt 5cm = Température de l'air 5cm
tt -20cm = Température de l'air -20cm
ff = Vitesse du vent
fx = gusts
dd = Direction du vent
ppp = reduced air pressure
vv = visibility
sd = Ensoleillement
rr = Quantités de précipitations

stations d'obs. à proximité